Current weather by "City, St" or "zip code"  
 

Current Conditions: KEARNEY MUNI

Clear


62.1 F

Last Updated on May 26 2024, 01:56 AM CDT
Humidity: 72%
Wind Speed: 8.1 mph
Barometer 29.56 in
Dewpoint: 53.1 F
Visibility: 10.00 mi
Precip: --
Heat Index: NA
Wind Chill: NA
Current conditions at:

KEARNEY MUNI (KEAR)

Lat: 40.72 Lon: 99

active severe weather and emergency alerts image image weather storm and storm spotter reports image weather observation monitoring service image
Active
Alerts
Storm Reports Obs
Monitoring

Sign-up For Email & Text Message Weather Alert Notification Services



Advertise Here

Observation History for KEARNEY MUNI


Time Wind
(mph)
Vis
(mi)
Weather Precip (in) Temperature (F) Relative
Humidity
Wind
Chill
(F)
Heat
Index
(F)
Pressure
Air Dwpt altimeter
(in)
sea level
(mb)
Rmks
01:56 AM CDT 8.1 10.00 Clear -- 62.1 53.1 72% NA NA 29.56 1001.0
12:56 AM CDT S 5.8 10.00 Clear -- 62.1 53.1 72% NA NA 29.59 1002.0
11:56 PM CDT E 11.4 10.00 Clear Trace 63.0 52.0 67% NA NA 29.54 1000.3
10:56 PM CDT 17.2 10.00 Clear Trace 64.9 53.1 65% NA NA 29.55 1000.7
09:56 PM CDT 10.00 Light Rain Trace 66.9 53.1 61% NA NA M
09:42 PM CDT 10.00 Light Rain -- 66.2 53.6 64% NA NA 29.55 1000.7
08:56 PM CDT NE 11.4 10.00 Clear -- 70.0 52.0 53% NA NA 29.51 999.3
07:56 PM CDT 13.9 10.00 Clear -- 73.9 51.1 45% NA 73.2 29.54 1000.3
06:56 PM CDT SE 15.0 10.00 Clear -- 75.0 48.9 40% NA 74.1 29.55 1000.7
05:56 PM CDT 20.8 10.00 Clear and Windy -- 75.9 46.9 36% NA 74.8 29.58 1001.7
04:56 PM CDT S 23.0 10.00 Clear and Windy -- 78.1 46.9 33% NA 77.2 29.61 1002.7
03:56 PM CDT S 19.7 10.00 Clear and Windy -- 75.0 46.0 36% NA 73.9 29.65 1004.1
02:56 PM CDT 18.3 10.00 Clear -- 73.9 46.0 37% NA 72.9 29.68 1004.8
01:56 PM CDT 24.2 10.00 Clear and Windy -- 75.9 46.9 36% NA 74.8 29.69 1005.4
12:56 PM CDT S 20.8 10.00 Clear and Windy -- 72.0 48.0 43% NA 70.9 29.74 1007.1
11:56 AM CDT S 25.3 10.00 Clear and Windy -- 71.1 48.0 44% NA 70.0 29.77 1008.1
10:56 AM CDT S 23.0 10.00 Clear and Windy -- 68.0 50.0 53% NA NA 29.81 1009.2
09:56 AM CDT S 24.2 10.00 Clear and Windy -- 66.0 48.9 54% NA NA 29.82 1009.8
08:56 AM CDT S 13.9 10.00 Clear -- 60.1 50.0 69% NA NA 29.83 1010.2
07:56 AM CDT 20.8 10.00 Clear and Windy -- 57.9 48.9 72% NA NA 29.82 1009.8
06:56 AM CDT S 16.1 10.00 Mostly Clear Trace 55.9 48.0 75% NA NA 29.82 1009.8
05:56 AM CDT S 12.8 10.00 Mostly Clear -- 55.0 46.9 74% NA NA 29.83 1010.2
04:56 AM CDT S 15.0 10.00 Clear -- 54.0 46.0 74% NA NA 29.82 1009.8
03:56 AM CDT S 8.1 10.00 Clear -- 52.0 44.1 74% NA NA 29.83 1010.2

Regional Weather Observation


LEXINGTON (KLXN)

Clear
56.8 F

HOLDREGE/BREWSTR (KHDE)

Clear
59.4 F

BROKEN BOW MUNI (KBBW)

Clear
54.0 F

GRAND ISLAND (KGRI)

Clear
63.0 F

HASTINGS (KHSI)

Mostly Cloudy
60.1 F

ORD/SHARP FIELD (KODX)

Clear
55.9 F

Advertise Here


Advertise Here